Location: *
(47.6569°N, 7.4256°E)
Time: 03:08:30
(UTC+00:00)

Cosmos 1441 Rocket - Pass Details

Date: 14 December 2019
Orbit: 496 x 541 km, 81.1° (Epoch: 19 January)

Event Time Altitude Azimuth Distance (km) Brightness Sun altitude
Rises 17:10:16 0° 345° (NNW) 2,638 6.8 -14.6°
Reaches altitude 10° 17:12:26 10° 343° (NNW) 1,739 5.9 -14.9°
Maximum altitude 17:16:12 63° 262° (W) 568 3.6 -15.5°
Drops below altitude 10° 17:19:53 10° 181° (S) 1,703 6.0 -16.1°
Sets 17:22:00 0° 178° (S) 2,577 6.9 -16.5°
